When you browse on this site, cookies collect data to enhance your experience and personalize the content and advertising you see.
Visit our Privacy Policy to learn more. By continuing to use the site, you agree to this use of cookies and data.
  • In Hungary
  • List of Countries
  • For 7 days
  • Water Temperature
  • Satellite Maps
  • Weather Map
  • News
  • Weather Widgets
  • user-avatar
    Login

    Hourly Weather Saalfelden am Steinernen Meer

    Today, 24 March, Sunday

    Time Temperature Precipitation Wind Pressure Humidity
    00:00 +7°C° 0 mm 1 mps 698 mmHg 89%
    01:00 +6°C° 0 mm 2 mps 698 mmHg 86%
    02:00 +6°C° 0 mm 2 mps 698 mmHg 86%
    03:00 +5°C° 0 mm 2 mps 697 mmHg 85%
    04:00 +5°C° 0 mm 2 mps 697 mmHg 85%
    05:00 +5°C° 0 mm 2 mps 697 mmHg 84%
    06:00 +6°C° 0 mm 2 mps 697 mmHg 83%
    07:00 +6°C° 0 mm 2 mps 697 mmHg 80%
    08:00 +10°C° 0 mm 1 mps 697 mmHg 77%
    09:00 +12°C° 0 mm 1 mps 697 mmHg 75%
    10:00 +14°C° 0 mm 0 mps 697 mmHg 72%
    11:00 +14°C° 0 mm 0 mps 697 mmHg 69%
    12:00 +16°C° 0 mm 1 mps 696 mmHg 67%
    13:00 +18°C° 0 mm 1 mps 696 mmHg 65%
    14:00 +16°C° 0 mm 1 mps 695 mmHg 69%
    15:00 +16°C° 0 mm 1 mps 695 mmHg 72%
    16:00 +15°C° 0 mm 1 mps 694 mmHg 76%
    17:00 +13°C° 0 mm 1 mps 694 mmHg 82%
    18:00 +11°C° 0 mm 1 mps 694 mmHg 88%
    19:00 +8°C° 0 mm 1 mps 694 mmHg 94%
    20:00 +8°C° 0.1 mm 1 mps 694 mmHg 94%
    21:00 +8°C° 0.1 mm 1 mps 694 mmHg 94%
    22:00 +8°C° 0.1 mm 1 mps 694 mmHg 94%
    23:00 +8°C° 0.1 mm 1 mps 694 mmHg 95%

    Tomorrow, 25 March, Monday

    Time Temperature Precipitation Wind Pressure Humidity
    00:00 +7°C° 0.1 mm 1 mps 694 mmHg 96%
    01:00 +7°C° 0.1 mm 1 mps 694 mmHg 97%
    02:00 +7°C° 0.1 mm 1 mps 693 mmHg 97%
    03:00 +7°C° 0.1 mm 1 mps 693 mmHg 97%
    04:00 +6°C° 0.1 mm 1 mps 693 mmHg 98%
    05:00 +6°C° 0.2 mm 1 mps 693 mmHg 97%
    06:00 +6°C° 0.2 mm 1 mps 693 mmHg 97%
    07:00 +6°C° 0.2 mm 1 mps 693 mmHg 97%
    08:00 +7°C° 0.4 mm 1 mps 692 mmHg 95%
    09:00 +6°C° 0.4 mm 2 mps 692 mmHg 93%
    10:00 +6°C° 0.4 mm 2 mps 692 mmHg 91%
    11:00 +6°C° 0.5 mm 2 mps 691 mmHg 91%
    12:00 +6°C° 0.5 mm 2 mps 691 mmHg 90%
    13:00 +5°C° 0.5 mm 2 mps 691 mmHg 89%
    14:00 +4°C° 0.7 mm 2 mps 691 mmHg 91%
    15:00 +4°C° 0.7 mm 2 mps 690 mmHg 92%
    16:00 +3°C° 0.7 mm 2 mps 690 mmHg 93%
    17:00 +2°C° 0.9 mm 2 mps 691 mmHg 94%
    18:00 +2°C° 0.9 mm 2 mps 691 mmHg 95%
    19:00 +1°C° 0.9 mm 2 mps 692 mmHg 95%
    20:00 +1°C° 0.5 mm 2 mps 692 mmHg 95%
    21:00 -1°C° 0.5 mm 3 mps 693 mmHg 95%
    22:00 -1°C° 0.5 mm 3 mps 694 mmHg 94%
    23:00 -2°C° 0.5 mm 2 mps 694 mmHg 95%

    Day after tomorrow, 26 March, Tuesday

    Time Temperature Precipitation Wind Pressure Humidity
    00:00 -2°C° 0.5 mm 2 mps 695 mmHg 95%
    01:00 -2°C° 0.5 mm 2 mps 695 mmHg 95%
    02:00 0°C° 0.6 mm 1 mps 695 mmHg 95%
    03:00 0°C° 0.6 mm 1 mps 696 mmHg 95%
    04:00 0°C° 0.6 mm 1 mps 696 mmHg 95%
    05:00 0°C° 0.3 mm 1 mps 696 mmHg 94%
    06:00 0°C° 0.3 mm 1 mps 697 mmHg 94%
    07:00 0°C° 0.3 mm 1 mps 697 mmHg 93%
    08:00 +1°C° 0.2 mm 1 mps 697 mmHg 89%
    09:00 +2°C° 0.2 mm 1 mps 698 mmHg 86%
    10:00 +3°C° 0.2 mm 1 mps 698 mmHg 82%
    11:00 +2°C° 0.1 mm 2 mps 698 mmHg 81%
    12:00 +3°C° 0.1 mm 2 mps 698 mmHg 80%
    13:00 +4°C° 0.1 mm 2 mps 697 mmHg 79%
    14:00 +4°C° 0.1 mm 2 mps 697 mmHg 80%
    15:00 +3°C° 0.1 mm 2 mps 697 mmHg 81%
    16:00 +3°C° 0.1 mm 2 mps 697 mmHg 82%
    17:00 +3°C° 0 mm 1 mps 697 mmHg 86%
    18:00 +2°C° 0 mm 1 mps 698 mmHg 90%
    19:00 0°C° 0 mm 1 mps 698 mmHg 95%
    20:00 0°C° 0 mm 1 mps 698 mmHg 95%
    21:00 -1°C° 0 mm 1 mps 699 mmHg 95%
    22:00 -1°C° 0 mm 1 mps 699 mmHg 95%
    23:00 -1°C° 0 mm 1 mps 699 mmHg 94%

    27 March, Wednesday

    Time Temperature Precipitation Wind Pressure Humidity
    00:00 -2°C° 0 mm 0 mps 699 mmHg 94%
    01:00 -2°C° 0 mm 0 mps 699 mmHg 93%
    02:00 -2°C° 0.1 mm 0 mps 699 mmHg 93%
    03:00 -2°C° 0.1 mm 0 mps 699 mmHg 93%
    04:00 -2°C° 0.1 mm 0 mps 699 mmHg 93%
    05:00 -2°C° 0.1 mm 0 mps 699 mmHg 92%
    06:00 -1°C° 0.1 mm 0 mps 699 mmHg 92%
    07:00 -1°C° 0.1 mm 0 mps 699 mmHg 91%
    08:00 +1°C° 0.2 mm 1 mps 700 mmHg 88%
    09:00 +2°C° 0.2 mm 1 mps 700 mmHg 85%
    10:00 +3°C° 0.2 mm 1 mps 700 mmHg 82%
    11:00 +4°C° 0.2 mm 1 mps 700 mmHg 82%
    12:00 +4°C° 0.2 mm 1 mps 700 mmHg 83%
    13:00 +4°C° 0.2 mm 2 mps 700 mmHg 83%
    14:00 +5°C° 0.1 mm 1 mps 700 mmHg 83%
    15:00 +5°C° 0.1 mm 1 mps 699 mmHg 84%
    16:00 +5°C° 0.1 mm 1 mps 699 mmHg 85%
    17:00 +4°C° 0.1 mm 1 mps 699 mmHg 89%
    18:00 +3°C° 0.1 mm 1 mps 700 mmHg 92%
    19:00 +1°C° 0.1 mm 0 mps 700 mmHg 96%
    20:00 0°C° 0 mm 0 mps 700 mmHg 96%
    21:00 -1°C° 0 mm 0 mps 701 mmHg 96%
    22:00 -1°C° 0 mm 0 mps 701 mmHg 95%
    23:00 -1°C° 0 mm 0 mps 701 mmHg 95%

    28 March, Thursday

    Time Temperature Precipitation Wind Pressure Humidity
    00:00 -1°C° 0 mm 0 mps 701 mmHg 95%
    01:00 -1°C° 0 mm 0 mps 701 mmHg 94%
    02:00 -1°C° 0 mm 1 mps 701 mmHg 93%
    03:00 -1°C° 0 mm 1 mps 701 mmHg 93%
    04:00 -1°C° 0 mm 1 mps 701 mmHg 92%
    05:00 -1°C° 0 mm 1 mps 701 mmHg 90%
    06:00 0°C° 0 mm 1 mps 701 mmHg 89%
    07:00 0°C° 0 mm 1 mps 702 mmHg 87%
    08:00 +2°C° 0 mm 1 mps 702 mmHg 84%
    09:00 +5°C° 0 mm 1 mps 702 mmHg 82%
    10:00 +7°C° 0 mm 1 mps 702 mmHg 79%
    11:00 +7°C° 0 mm 1 mps 701 mmHg 79%
    12:00 +8°C° 0 mm 1 mps 701 mmHg 78%
    13:00 +9°C° 0 mm 1 mps 701 mmHg 78%
    14:00 +8°C° 0 mm 1 mps 700 mmHg 80%
    15:00 +8°C° 0 mm 1 mps 700 mmHg 83%
    16:00 +8°C° 0 mm 1 mps 700 mmHg 85%
    17:00 +6°C° 0 mm 1 mps 700 mmHg 89%
    18:00 +5°C° 0 mm 1 mps 700 mmHg 93%
    19:00 +3°C° 0 mm 0 mps 700 mmHg 96%
    20:00 +3°C° 0 mm 1 mps 701 mmHg 96%
    21:00 +3°C° 0 mm 1 mps 701 mmHg 96%
    22:00 +2°C° 0 mm 1 mps 701 mmHg 96%
    23:00 +2°C° 0 mm 1 mps 701 mmHg 95%

    29 March, Friday

    Time Temperature Precipitation Wind Pressure Humidity
    00:00 +2°C° 0 mm 1 mps 701 mmHg 94%
    01:00 +2°C° 0 mm 1 mps 701 mmHg 93%
    02:00 +1°C° 0 mm 1 mps 701 mmHg 92%
    03:00 +1°C° 0 mm 1 mps 701 mmHg 91%
    04:00 +1°C° 0 mm 1 mps 701 mmHg 91%
    05:00 +2°C° 0 mm 1 mps 701 mmHg 89%
    06:00 +2°C° 0 mm 1 mps 701 mmHg 88%
    07:00 +2°C° 0 mm 1 mps 701 mmHg 87%
    08:00 +5°C° 0 mm 1 mps 701 mmHg 82%
    09:00 +7°C° 0 mm 1 mps 702 mmHg 77%
    10:00 +9°C° 0 mm 1 mps 702 mmHg 72%
    11:00 +10°C° 0 mm 1 mps 702 mmHg 70%
    12:00 +11°C° 0 mm 1 mps 701 mmHg 68%
    13:00 +12°C° 0 mm 1 mps 701 mmHg 66%
    14:00 +12°C° 0 mm 1 mps 701 mmHg 68%
    15:00 +11°C° 0 mm 1 mps 700 mmHg 70%
    16:00 +11°C° 0 mm 1 mps 700 mmHg 72%
    17:00 +9°C° 0 mm 1 mps 700 mmHg 78%
    18:00 +6°C° 0 mm 0 mps 700 mmHg 84%
    19:00 +4°C° 0 mm 0 mps 699 mmHg 90%
    20:00 +3°C° 0 mm 0 mps 700 mmHg 89%
    21:00 +4°C° 0 mm 1 mps 700 mmHg 88%
    22:00 +4°C° 0 mm 1 mps 700 mmHg 87%
    23:00 +3°C° 0 mm 1 mps 700 mmHg 86%
    Show more